Hourly Weather Roundup
Issued by NWS Central Illinois

Home | Current Version | Previous Version | Text Only | Print | Product List | Glossary On
Versions: 1 2 3 4 5 6 7 8 9 10 11 12 13 14 15 16 17 18 19 20 21 22 23 24 25 26 27 28 29 30 31 32 33 34 35 36 37 38 39 40 41 42 43 44 45 46 47 48 49 50
000
NZUS43 KILX 021710
HWRILX

AREA WEATHER ROUNDUP
NATIONAL WEATHER SERVICE, LINCOLN IL
1200 PM CDT SUN AUG 02 2015


CITY           SKY/WX    TMP DP  RH WIND       PRES   REMARKS
BLOOMINGTON    PTSUNNY   86  72  62 SW14      29.91F HX  92
CHAMPAIGN      SUNNY     86  73  65 SW13G21   29.92F HX  93
DANVILLE       MOSUNNY   83  73  70 SW12G20   29.89F HX  89
DECATUR        MOSUNNY   86  69  56 SW14      29.93S HX  90
EFFINGHAM      SUNNY     88  67  49 SW8       29.96S HX  90
FLORA          SUNNY     86  70  59 S9        29.96F HX  91
GALESBURG      MOSUNNY   84  71  65 SW12G18   29.86F HX  89
JACKSONVILLE   MOSUNNY   88  73  61 SW8       29.91S HX  96
LACON          MOSUNNY   85  68  56 SW10G21   29.84F HX  88
LAWRENCEVILLE  SUNNY     87  67  51 SW10      29.97S HX  90
LITCHFIELD     SUNNY     86  70  58 SW8       29.94F HX  90
$$


CITY           SKY/WX    TMP DP  RH WIND       PRES   REMARKS
LINCOLN        PTSUNNY   87  69  55 SW8       29.89F HX  90
MACOMB         PTSUNNY   85  72  63 SW12      29.89F HX  91
MATTOON        SUNNY     84  68  58 SW10      29.93F HX  87
MT CARMEL AP   SUNNY     86  68  54 SW9       29.97F HX  89
OLNEY-NOBLE AP SUNNY     84  72  65 S6        29.96F HX  89
PARIS          SUNNY     86  73  64 SW9G17    29.94F HX  93
PEORIA         PTSUNNY   89  70  53 SW14      29.87F HX  94
PONTIAC        MOSUNNY   85  71  62 SW14      29.88S HX  90
RANTOUL        SUNNY     87  73  63 SW13      29.90F HX  95
ROBINSON       SUNNY     85  69  59 SW9       29.96F HX  89
SPRINGFIELD    PTSUNNY   82  74  76 S3        29.91F THUNDER HX  88
TAYLORVILLE    MOSUNNY   86  72  62 SW9       29.93S HX  92
$$

...REGIONAL REPORTS...


CITY           SKY/WX    TMP DP  RH WIND       PRES   REMARKS
CHICAGO O`HARE MOSUNNY   88  63  43 SW20G30   29.79F HX  89
KANKAKEE       SUNNY     89  70  54 SW17G24   29.87S HX  94
MOLINE         SUNNY     86  67  52 SW14G21   29.81F HX  89
MOUNT STERLING NOT AVBL
MOUNT VERNON   SUNNY     90  72  55 SW12      29.97F HX  96
PITTSFIELD     MOSUNNY   88  72  58 W8        29.92S HX  94
QUINCY         PTSUNNY   86  71  60 SW10      29.90S HX  91
ROCKFORD       MOSUNNY   87  66  49 SW17G26   29.79F HX  89
$$


CITY           SKY/WX    TMP DP  RH WIND       PRES   REMARKS
BURLINGTON     MOSUNNY   84  73  69 SW12G20   29.85F HX  90
CEDAR RAPIDS   MOSUNNY   83  73  72 SW17G23   29.80F HX  89
DES MOINES     MOSUNNY   89  71  55 W22G28    29.80F HX  95
KIRKSVILLE     SUNNY     84  71  65 SW7       29.90S HX  89
OTTUMWA        SUNNY     85  74  69 SW13      29.82F HX  92
ST LOUIS       MOSUNNY   92  69  47 W10       29.94F HX  97
$$


CITY           SKY/WX    TMP DP  RH WIND       PRES   REMARKS
TERRE HAUTE    SUNNY     87  69  54 S14       29.95F HX  91
EVANSVILLE     SUNNY     87  59  38 SW10      29.98F HX  86
INDIANAPOLIS   MOSUNNY   84  66  54 S13       29.95S HX  86
LAFAYETTE      SUNNY     84  70  62 SW12G22   29.90F HX  88
MADISON        MOSUNNY   84  69  60 SW9G18    29.72F HX  88
MILWAUKEE      PTSUNNY   88  68  51 SW18G28   29.74S HX  91
$$




USA.gov is the U.S. government's official web portal to all federal, state and local government web resources and services.